Wind_Speed
30 31 31 30 30 30 30 30 30 30 29 28 28 28 27 28 28 29 29 30 31 32 33 34 35 35 36 37 38 38 39 40 40 41 41 41 41 42 42 42 42 42 42
30 30 31 30 30 30 29 29 29 29 29 29 28 29 28 27 28 29 29 30 30 31 32 32 33 34 34 35 35 36 37 38 38 39 39 39 40 40 41 41 41 40 41
30 30 30 30 31 30 29 29 29 28 28 29 28 28 27 27 28 28 29 29 29 29 30 30 31 32 32 33 33 34 35 36 36 37 37 37 38 39 39 39 38 38 38
29 30 30 30 30 29 28 28 28 29 29 29 27 27 27 27 27 27 28 28 27 27 27 28 29 29 30 31 32 33 33 34 35 35 35 36 36 35 35 35 35 35 35
26 27 29 29 28 28 27 27 28 27 26 25 26 26 26 26 26 26 26 26 26 26 26 27 28 28 29 30 30 31 31 32 32 32 33 33 33 32 31 32 32 32 32
24 24 24 25 24 25 26 26 25 25 24 24 24 24 24 25 25 25 25 25 25 25 26 26 27 28 29 29 29 30 30 29 29 29 29 29 29 28 29 29 29 29 28
21 21 22 22 22 22 22 22 22 23 23 23 23 24 23 22 22 23 23 23 23 24 25 25 26 27 28 28 28 28 28 28 28 27 27 26 26 26 26 26 26 25 24
19 19 19 19 19 19 19 20 20 20 20 20 20 20 20 20 21 22 23 23 24 24 25 25 25 25 26 26 26 26 26 25 25 24 24 23 23 23 23 23 21 20 20
16 16 16 16 16 16 16 17 18 18 18 18 19 19 19 20 20 21 21 22 23 23 24 24 24 24 24 24 24 24 23 22 21 21 21 21 20 20 19 19 18 17 17
14 13 13 13 13 14 14 15 15 15 15 16 18 19 20 21 21 21 21 21 22 21 22 22 22 21 21 21 21 21 20 19 19 19 19 18 18 17 16 15 15 15 15
11 11 11 12 13 13 13 14 14 15 16 17 17 18 19 20 20 20 20 20 20 20 20 20 20 20 19 18 18 18 18 17 17 17 17 16 15 14 14 13 13 13 14
8 9 10 11 12 12 13 13 14 15 15 16 16 16 17 17 17 18 19 18 18 18 18 18 18 17 17 17 16 16 15 15 15 15 14 13 12 12 11 11 11 12 12
7 8 9 11 11 12 12 12 13 14 14 14 15 15 16 16 16 16 16 17 16 16 17 16 16 16 16 15 14 13 13 13 13 12 11 11 10 10 9 9 9 9 9
8 8 8 9 10 10 11 12 12 12 13 13 13 13 14 15 15 15 15 14 14 14 14 14 14 14 13 12 12 12 11 11 11 10 10 9 9 8 7 7 7 7 7
8 8 9 9 9 9 9 9 9 9 9 10 11 12 13 13 12 12 12 12 12 11 12 11 11 11 11 11 11 11 10 10 9 9 8 8 7 7 6 6 6 5 5
7 7 8 8 7 7 7 7 7 7 8 8 9 9 9 9 9 9 9 10 10 9 9 9 9 9 9 9 9 9 9 8 8 7 6 6 5 5 4 4 4 4 4
6 6 7 7 6 6 6 6 6 6 6 7 7 7 7 7 7 7 7 8 7 7 7 7 8 8 8 8 8 8 8 7 6 5 4 4 4 3 3 2 2 3 3
6 7 7 7 6 6 5 5 5 5 5 5 6 6 6 6 6 7 6 6 6 6 6 6 6 6 6 6 6 6 6 5 4 3 3 2 2 1 1 1 2 3 4
8 8 8 8 8 7 7 6 5 5 5 6 6 6 7 7 7 7 7 7 6 6 6 6 5 5 5 5 5 4 4 3 2 2 1 0 1 1 1 2 3 3 4
9 10 10 10 10 9 9 8 8 8 7 7 7 7 8 8 8 8 7 7 7 6 5 5 5 5 5 4 4 3 3 2 1 1 1 1 2 2 2 2 3 4 4
11 11 12 12 12 11 11 10 10 9 9 9 8 9 9 9 9 9 8 8 7 7 6 5 5 5 4 4 3 3 2 2 2 2 2 2 2 2 3 3 4 4 5
13 13 13 13 13 13 13 12 12 12 11 11 11 11 10 10 10 10 10 10 9 9 8 7 7 6 6 5 5 4 4 4 3 3 3 3 3 3 3 3 4 4 5
14 14 14 14 14 14 14 14 13 13 13 13 13 12 12 12 12 12 12 12 11 11 10 9 9 8 7 6 6 5 5 5 4 4 4 3 3 3 3 3 4 4 5
16 16 16 16 16 16 15 15 15 15 14 14 14 14 14 14 14 13 13 13 13 12 12 11 10 9 9 8 7 7 6 5 5 5 4 4 4 3 3 4 4 4 5
16 17 16 16 16 16 16 16 15 15 15 15 15 15 15 15 15 15 14 14 14 13 13 12 12 11 10 10 9 8 7 7 6 5 5 5 4 4 4 4 4 5 5
17 17 16 16 16 16 15 15 15 15 15 15 15 15 15 15 15 15 15 15 14 14 13 13 12 12 11 10 9 9 8 7 6 6 5 5 5 4 5 5 5 6 6
Wind_Direction
263 265 266 268 270 271 274 276 275 275 274 274 274 274 273 271 271 270 268 268 269 268 270 272 273 273 274 276 278 281 283 285 286 287 287 288 289 291 291 291 292 293 293
264 265 266 268 271 273 274 274 275 276 277 274 272 272 272 271 273 272 270 270 271 271 273 274 275 276 277 278 280 282 284 286 287 288 290 290 291 291 292 293 294 295 294
266 266 267 268 270 272 273 274 275 274 272 272 272 272 272 274 274 274 273 273 274 274 275 276 277 278 280 282 283 284 285 287 288 289 290 291 291 292 292 293 294 295 297
268 267 267 268 268 268 270 272 273 272 271 272 273 273 273 275 274 274 275 274 274 276 277 279 281 283 284 285 286 286 287 289 290 290 291 291 291 293 293 294 296 298 300
270 270 269 267 266 266 267 268 270 271 271 270 270 271 271 274 276 275 276 277 278 280 282 284 286 287 288 289 288 289 290 291 292 292 291 292 292 293 294 296 298 300 301
272 271 270 267 264 263 262 264 266 266 267 269 270 271 272 274 277 277 279 281 284 285 285 287 288 287 288 289 289 290 291 293 293 293 294 294 295 295 296 297 300 302 303
273 272 269 266 264 262 263 262 263 265 267 269 270 272 272 274 277 278 281 285 286 287 287 288 288 288 289 290 291 292 291 292 294 296 296 297 297 297 299 301 302 303 304
276 273 271 270 268 267 266 265 267 270 269 270 271 272 274 278 281 283 284 284 285 286 288 289 290 291 293 293 293 293 293 294 296 298 297 297 298 299 300 301 302 303 305
275 273 271 269 270 270 272 272 269 269 270 270 271 275 278 280 282 282 282 284 285 286 288 290 292 293 292 292 292 292 293 294 295 297 297 297 299 300 299 301 303 305 307
277 274 272 271 272 277 276 276 273 272 275 278 278 278 279 282 282 282 284 285 286 289 290 291 292 291 290 291 291 291 292 294 296 298 299 299 300 300 300 303 305 308 310
284 282 276 275 275 276 275 276 275 276 278 279 278 279 281 283 283 284 285 285 285 286 288 290 291 290 291 292 292 292 292 294 296 297 298 299 299 299 300 302 304 307 311
291 287 282 281 281 279 278 277 278 277 278 280 280 282 284 285 284 286 286 285 285 285 287 290 292 292 292 293 293 293 293 293 296 297 297 298 298 299 300 302 304 308 312
301 297 291 287 287 286 282 279 281 281 282 282 281 282 285 288 290 289 288 286 285 287 289 290 292 293 294 294 294 295 296 297 298 298 298 299 299 299 302 304 307 311 315
310 310 306 301 298 291 286 284 285 284 283 284 285 286 289 290 291 290 292 291 287 287 290 293 294 296 297 297 297 298 299 298 298 298 299 300 301 302 303 306 311 315 320
319 316 313 309 305 298 293 292 293 292 291 291 292 293 294 294 296 293 294 293 291 291 293 295 297 299 299 300 301 301 300 297 295 295 297 299 301 301 301 306 312 319 328
327 326 323 317 313 309 309 308 307 306 307 308 307 305 304 303 305 303 302 302 301 300 298 299 301 301 301 301 302 302 302 300 297 294 295 298 299 299 304 311 322 333 348
344 345 345 341 337 332 328 328 325 324 324 323 320 318 319 320 319 318 318 320 319 314 308 308 308 307 307 307 305 303 302 300 298 297 298 299 301 303 309 322 342 356 9
11 11 12 11 7 0 355 354 351 350 350 348 346 348 349 347 343 340 338 336 333 327 323 319 317 316 315 315 316 312 307 305 302 304 304 305 309 325 0 21 22 22 25
31 32 32 30 29 30 28 24 20 17 13 10 10 8 6 2 359 356 352 349 344 339 336 332 327 325 325 328 330 328 324 318 314 313 316 355 65 78 65 53 43 37 34
44 44 45 44 42 41 41 40 39 35 33 32 29 24 21 17 14 11 8 5 1 358 353 348 343 340 341 344 347 348 347 351 14 65 100 104 104 91 78 68 55 44 37
55 55 53 52 50 49 49 49 48 47 44 42 40 35 31 27 24 22 22 21 19 17 15 12 10 10 10 13 18 22 32 55 74 93 106 107 100 91 85 74 57 46 40
61 60 59 58 56 56 56 55 54 53 51 49 47 43 40 38 36 36 35 36 35 35 35 36 37 37 38 42 47 52 63 75 83 90 99 96 92 89 83 67 52 43 36
64 63 62 61 60 58 58 57 56 55 53 51 49 47 46 44 43 42 42 43 43 43 44 44 45 46 48 51 55 61 68 75 76 80 85 84 82 79 70 54 43 36 28
67 66 65 64 63 62 60 59 57 56 54 53 51 50 50 49 48 48 47 47 47 47 47 47 49 50 51 55 59 61 64 68 70 73 74 71 66 60 50 35 27 21 15
67 65 64 63 62 61 59 58 57 56 55 54 53 53 53 52 51 50 49 49 48 48 48 48 49 51 54 57 58 59 62 64 64 63 60 53 46 39 28 17 10 5 2
65 64 63 62 61 59 58 57 56 56 55 54 53 52 52 51 51 50 49 49 48 48 47 48 50 52 54 54 55 56 56 55 54 50 43 36 32 23 11 2 356 352 350
Height
5752 5753 5754 5755 5755 5756 5756 5756 5756 5757 5757 5758 5759 5759 5759 5760 5760 5761 5761 5761 5762 5762 5763 5764 5764 5764 5763 5763 5762 5761 5760 5759 5758 5757 5755 5753 5751 5749 5747 5744 5742 5739 5735
5745 5746 5746 5747 5748 5749 5749 5749 5749 5750 5750 5751 5752 5752 5752 5753 5753 5753 5754 5754 5754 5755 5755 5755 5755 5755 5755 5754 5754 5753 5752 5750 5749 5747 5746 5744 5741 5739 5736 5734 5732 5729 5726
5738 5738 5739 5740 5741 5741 5742 5742 5742 5743 5743 5744 5744 5745 5745 5745 5746 5746 5746 5747 5747 5747 5747 5747 5747 5747 5746 5746 5745 5744 5743 5741 5739 5738 5736 5734 5732 5729 5727 5724 5722 5719 5716
5731 5731 5732 5733 5734 5734 5734 5735 5735 5736 5736 5736 5737 5737 5738 5738 5739 5739 5739 5739 5740 5740 5740 5739 5739 5739 5738 5737 5736 5735 5734 5732 5730 5729 5727 5725 5723 5720 5718 5716 5713 5710 5707
5724 5724 5725 5725 5726 5727 5727 5728 5728 5729 5729 5729 5730 5731 5731 5732 5732 5732 5732 5732 5732 5733 5733 5732 5732 5731 5730 5729 5728 5726 5725 5723 5722 5720 5718 5716 5714 5712 5710 5707 5705 5702 5699
5718 5717 5718 5719 5719 5720 5720 5721 5721 5722 5723 5723 5724 5724 5725 5725 5726 5726 5726 5726 5726 5725 5725 5725 5724 5724 5723 5721 5720 5718 5717 5716 5713 5712 5710 5708 5706 5704 5702 5700 5697 5695 5692
5711 5712 5712 5712 5713 5714 5714 5715 5715 5716 5717 5717 5718 5719 5719 5719 5719 5719 5719 5719 5719 5719 5719 5718 5717 5716 5715 5713 5712 5711 5709 5708 5706 5705 5703 5700 5699 5697 5695 5693 5690 5688 5686
5706 5706 5706 5707 5708 5708 5708 5709 5709 5710 5711 5711 5712 5713 5713 5713 5713 5714 5713 5713 5713 5713 5712 5711 5710 5709 5708 5706 5705 5704 5702 5701 5699 5698 5696 5694 5693 5691 5689 5687 5685 5683 5681
5702 5702 5702 5702 5703 5703 5704 5704 5705 5705 5706 5706 5707 5707 5707 5708 5708 5708 5707 5707 5707 5706 5706 5705 5704 5702 5701 5700 5699 5697 5696 5694 5693 5691 5690 5688 5687 5685 5684 5682 5680 5678 5677
5698 5698 5698 5698 5699 5700 5700 5700 5700 5701 5701 5701 5702 5702 5702 5702 5702 5702 5701 5701 5701 5700 5699 5698 5697 5696 5695 5694 5693 5691 5690 5689 5688 5686 5685 5683 5682 5680 5679 5678 5676 5674 5673
5695 5695 5695 5695 5696 5696 5696 5696 5697 5697 5697 5697 5697 5697 5697 5697 5696 5696 5696 5695 5695 5694 5694 5693 5692 5691 5690 5688 5687 5686 5685 5684 5683 5681 5680 5679 5678 5677 5675 5674 5673 5671 5670
5693 5693 5692 5692 5693 5693 5693 5693 5693 5693 5693 5693 5693 5692 5692 5692 5691 5691 5691 5690 5689 5689 5688 5688 5687 5686 5685 5684 5683 5681 5680 5679 5678 5677 5676 5675 5674 5673 5672 5671 5670 5669 5667
5691 5691 5690 5690 5690 5689 5689 5689 5690 5689 5689 5689 5689 5688 5688 5687 5687 5686 5685 5685 5684 5684 5684 5683 5682 5681 5680 5679 5678 5677 5676 5675 5674 5674 5673 5672 5671 5670 5669 5669 5668 5666 5665
5690 5689 5688 5687 5687 5686 5686 5686 5686 5686 5686 5686 5685 5685 5684 5683 5683 5682 5681 5680 5680 5680 5679 5679 5678 5677 5677 5676 5675 5674 5673 5672 5671 5671 5670 5669 5668 5668 5667 5667 5666 5665 5664
5688 5687 5686 5686 5685 5685 5684 5684 5684 5683 5683 5683 5682 5682 5681 5680 5679 5678 5677 5677 5677 5676 5676 5675 5675 5674 5674 5673 5672 5671 5670 5669 5669 5668 5667 5667 5666 5666 5665 5665 5664 5663 5662
5687 5686 5685 5684 5684 5683 5683 5682 5682 5682 5681 5681 5680 5679 5678 5678 5677 5676 5675 5675 5674 5673 5673 5673 5672 5671 5671 5670 5669 5668 5667 5666 5666 5665 5665 5665 5664 5664 5664 5664 5663 5662 5661
5687 5685 5684 5684 5683 5682 5682 5681 5681 5681 5680 5679 5679 5678 5677 5676 5676 5675 5674 5673 5672 5672 5671 5671 5670 5669 5668 5667 5666 5666 5665 5664 5664 5663 5663 5663 5663 5663 5663 5663 5662 5662 5661
5687 5686 5685 5684 5683 5682 5681 5681 5680 5680 5680 5679 5678 5677 5677 5676 5675 5674 5673 5672 5671 5670 5670 5669 5668 5667 5666 5666 5665 5664 5663 5663 5663 5662 5662 5663 5663 5663 5663 5662 5662 5662 5661
5688 5687 5686 5685 5684 5683 5682 5681 5681 5680 5680 5679 5678 5678 5677 5676 5675 5673 5672 5671 5670 5669 5669 5668 5667 5666 5665 5665 5664 5663 5663 5662 5662 5662 5662 5662 5663 5663 5663 5662 5662 5662 5661
5689 5688 5687 5686 5685 5684 5683 5683 5682 5681 5681 5680 5679 5679 5678 5676 5675 5674 5673 5671 5670 5669 5668 5667 5666 5665 5665 5664 5663 5663 5662 5662 5662 5662 5662 5663 5663 5663 5663 5663 5662 5662 5661
5692 5691 5690 5689 5688 5687 5686 5685 5684 5683 5683 5682 5681 5680 5679 5677 5676 5675 5673 5672 5671 5669 5668 5667 5666 5666 5665 5664 5663 5663 5663 5663 5663 5663 5663 5663 5663 5663 5663 5663 5663 5662 5662
5695 5694 5693 5692 5691 5690 5689 5688 5687 5686 5685 5684 5683 5682 5680 5679 5678 5676 5675 5673 5672 5671 5669 5668 5667 5666 5666 5665 5664 5664 5664 5664 5664 5664 5664 5664 5664 5664 5664 5664 5663 5663 5662
5699 5698 5697 5696 5695 5694 5693 5692 5691 5689 5688 5687 5686 5684 5683 5682 5680 5679 5677 5676 5674 5673 5671 5670 5669 5668 5667 5666 5666 5665 5665 5665 5665 5665 5665 5665 5665 5665 5665 5665 5664 5663 5663
5703 5702 5701 5700 5699 5698 5697 5695 5694 5693 5691 5690 5689 5687 5686 5684 5683 5681 5680 5679 5677 5676 5674 5673 5671 5670 5669 5669 5668 5668 5667 5667 5667 5667 5666 5666 5666 5666 5666 5665 5665 5664 5663
5708 5706 5705 5704 5703 5702 5701 5700 5698 5697 5695 5694 5693 5691 5690 5688 5687 5685 5683 5682 5680 5679 5677 5676 5675 5673 5672 5672 5671 5670 5670 5669 5669 5668 5668 5668 5667 5667 5667 5666 5665 5664 5663
5712 5711 5710 5709 5707 5706 5705 5704 5702 5701 5700 5698 5697 5695 5694 5692 5691 5689 5687 5686 5684 5682 5681 5679 5678 5677 5676 5675 5674 5673 5672 5672 5671 5670 5670 5669 5668 5668 5667 5666 5665 5664 5663